Miscellaneous Local Product
Issued by NWS North Platte, NE

Home | Current Version | Previous Version | Graphics & Text | Print | Product List | Glossary On
Versions: 1 2 3 4 5 6 7 8 9 10 11 12 13 14 15 16 17 18 19 20 21 22 23 24 25 26 27 28 29 30 31 32 33 34 35 36 37 38 39 40 41 42 43 44 45 46 47 48 49 50
000
AXUS43 KLBF 030110
MISLBF


WESTERN AND NORTH CENTRAL NEBRASKA HOURLY WEATHER ROUNDUP
NATIONAL WEATHER SERVICE NORTH PLATTE NE
800 PM CDT SUN AUG 02 2015

***STATIONS NOT REPORTING VARIABLES SUCH AS SKY/WEATHER OR
PRESSURE ARE PROVIDED BY THE NEBRASKA DEPARTMENT OF
ROADS...RAWS...AND APRS NETWORKS...AND ARE NOT UNDER
NATIONAL WEATHER SERVICE QUALITY CONTROL***

...OBSERVATIONS IN AND NEAR THE EASTERN PANHANDLE OF NEBRASKA...

CITY           SKY/WX    TMP DP  RH WIND       PRES   REMARKS
PINE RIDGE     SUNNY     82  56  40 E13       29.96S
CHADRON        MOSUNNY   85  57  38 NE14      29.93S
ALLIANCE       PTSUNNY   81  58  45 E8        29.94F
SIDNEY         MOSUNNY   86  48  26 SE5       30.00F
BIG SPRINGS      N/A     82  57  42 SE7         N/A
$$

...OBSERVATIONS IN NORTH CENTRAL NEBRASKA...

CITY           SKY/WX    TMP DP  RH WIND       PRES   REMARKS
THEDFORD       CLEAR     86  58  38 S7G17     29.92S
AINSWORTH      CLEAR     80  65  58 E6        29.94S
O`NEILL        CLEAR     82  66  60 NE5       29.90S
ORD            MOCLDY    80  60  50 W5        29.89S
BROKEN BOW     CLEAR     81  56  42 S3        29.90F
SPRINGVIEW       N/A     82  63  51 E5          N/A
CHAMBERS         N/A     88  61  40 CALM        N/A
EWING            N/A     81  71  70 CALM        N/A
$$

...OBSERVATIONS IN SOUTHWEST NEBRASKA AND FAR NORTHEAST COLORADO...

CITY           SKY/WX    TMP DP  RH WIND       PRES   REMARKS
WRAY           CLOUDY    89  46  22 CALM      29.96R
HOLYOKE        FAIR      82  55  39 E14       29.96S
IMPERIAL       PTSUNNY   83  54  36 E10       29.94S
OGALLALA       PTSUNNY   83  56  39 E5        29.94F
NORTH PLATTE   MOCLDY    76  61  59 SE13      29.91R
MCCOOK         CLOUDY    83  56  39 S15G22    29.92F
LEXINGTON      CLOUDY    80  56  43 SE7       29.90F
PAXTON           N/A     80  61  52 SE6         N/A
BRADY            N/A     75  63  66 CALM        N/A
CALLAWAY         N/A     78  68  72 S6          N/A
$$

...NORTH PLATTE AREA...

CITY           SKY/WX    TMP DP  RH WIND       PRES   REMARKS
AIRPORT        MOCLDY    76  61  59 SE13      29.91R
DOWNTOWN         N/A     79  61  54 SE3G12      N/A
SANDRIDGE        N/A     79  61  53 E5G12       N/A
HILLCREST        N/A     79  60  51 SE13G20     N/A
$$

...SOME WEATHER OBSERVATIONS FROM AROUND THE REGION...

CITY           SKY/WX    TMP DP  RH WIND       PRES   REMARKS
DENVER         CLOUDY    77  46  33 SW13      30.07F
LARAMIE        PTSUNNY   76  40  27 SE10      30.17F
CHEYENNE       PTSUNNY   82  47  29 SE9       30.10F
SCOTTSBLUFF    MOSUNNY   86  52  30 SE5       29.96S
RAPID CITY     SUNNY     80  57  45 NE8       29.97S
PIERRE         SUNNY     82  52  35 N9        29.89S
WINNER         FAIR      83  59  44 E6        29.91S
SIOUX FALLS    CLEAR     77  61  57 N8        29.87R
OMAHA          MOCLDY    87  76  69 N7        29.80R HX  97
GRAND ISLAND   CLOUDY    81  61  50 N7        29.86F
KANSAS CITY    MOCLDY    84  74  71 SW5       29.85R HX  91
WICHITA        PTCLDY    86  69  56 S8        29.87S HX  90
HAYS           CLEAR     91  64  40 S8        29.88R HX  93
LIBERAL        PTCLDY    90  64  43 E6        29.90S HX  91
GOODLAND       MOCLDY    87  53  31 SE7       29.95R
$$



USA.gov is the U.S. government's official web portal to all federal, state and local government web resources and services.